Home   Weather   Eastbourne   Past weeks

Flag for United Kingdom Past Weather in Eastbourne, England, United Kingdom — Yesterday and Last 2 Weeks

Now
37 °F

Fog.


Feels Like: 33 °F
Forecast: 34 / 45 °F
Wind: 6 mph from Northwest

Location: Herstmonceux

Current Time: Jan 24, 2017 at 3:24:55 am

Latest Report: Jan 24, 2017 at 2:00 am


Visibility: 6 mi

Pressure: 30.34 "Hg

Humidity: 97%

Dew Point: 36 °F

Location of EastbourneLocation

Past Weather in Eastbourne — Graph

°F

Eastbourne Temperature Yesterday

Maximum temperature yesterday: 35 °F (at 11:00 pm)
Minimum temperature yesterday: 24 °F (at 8:00 am)
Average temperature yesterday: 30 °F

High & Low Weather Summary for the Past Weeks

 TemperatureHumidityPressure
High54 °F (Jan 11, 11:00 am)100% (Jan 9, 5:00 am)30.69 "Hg (Jan 9, 5:00 am)
Low24 °F (Jan 23, 8:00 am)43% (Jan 19, 3:00 pm)29.18 "Hg (Jan 12, 6:00 pm)
Average37 °F86%30.23 "Hg
* Reported Jan 9 1:00 am — Jan 24 1:00 am, Eastbourne, Weather by CustomWeather, © 2017

Note: Actual official high and low records may vary slightly from our data, if they occured in-between our weather recording intervals... More about our weather records

Advertising

Eastbourne Weather History for the Previous 24 Hours

Scroll right to see more
 ConditionsComfort  
Time TempWeatherWind HumidityBarometerVisibility
1:00 am
Tue, Jan 24
36 °FFog.1 mph100%30.34 "Hg2 mi
12:00 am35 °FFog.3 mph100%30.35 "Hg2 mi
11:00 pm
Mon, Jan 23
35 °FFog.2 mph100%30.36 "Hg2 mi
10:00 pm33 °FChilly.1 mph100%30.37 "Hg1 mi
9:00 pm33 °FDuststorm.2 mph100%30.36 "Hg1 mi
8:00 pm33 °FChilly.2 mph100%30.37 "Hg1 mi
7:00 pm32 °FDuststorm.2 mph100%30.37 "Hg0 mi
6:00 pm32 °FDuststorm.2 mph100%30.37 "Hg0 mi
5:00 pm31 °FDuststorm.1 mph100%30.37 "Hg0 mi
4:00 pm31 °FDuststorm.2 mph100%30.36 "Hg0 mi
3:00 pm33 °FDuststorm.1 mph100%30.36 "Hg0 mi
2:00 pm33 °FDuststorm.No wind100%30.36 "Hg0 mi
1:00 pm32 °FDuststorm.1 mph100%30.38 "Hg0 mi
12:00 pm31 °FDuststorm.2 mph100%30.39 "Hg0 mi
11:00 am29 °FDuststorm.1 mph99%30.40 "Hg0 mi
10:00 am27 °FDuststorm.2 mph98%30.40 "Hg0 mi
9:00 am25 °FChilly.1 mph97%30.39 "Hg2 mi
8:00 am24 °FDuststorm.2 mph97%30.38 "Hg1 mi
7:00 am25 °FDuststorm.1 mph98%30.38 "Hg0 mi
6:00 am26 °FDuststorm.No wind98%30.37 "Hg0 mi
5:00 am28 °FDuststorm.No wind98%30.37 "Hg0 mi
4:00 am28 °FDuststorm.1 mph98%30.36 "Hg0 mi
3:00 am30 °FFreezing rain. Overcast.No wind100%30.37 "Hg0 mi
Weather by CustomWeather, © 2017

See weather overviewHow to use our weather pages